Flagstaff, AZ

4:51 AM MST on November 25, 2017 (GMT -0700)
Flagstaff Pulliam

Weather History for KFLG - March, 2011

Change the Weather History Date:

Sunday, March 20, 2011

  Actual Average Record
Temperature  
Mean Temperature 43 °F 38 °F  
Max Temperature 51 °F 51 °F 72 °F (2004)
Min Temperature 34 °F 24 °F -1 °F (1935)
Degree Days  
Heating Degree Days 22 27  
Month to date heating degree days 496 578  
Since 1 July heating degree days 5029 5417  
Cooling Degree Days 0 0  
Month to date cooling degree days 0 0  
Year to date cooling degree days 0 0  
Moisture  
Dew Point 4 °F    
Average Humidity 22    
Maximum Humidity 32    
Minimum Humidity 11    
Precipitation  
Precipitation 0.00 in 0.07 in 0.69 in (1981)
Month to date precipitation 0.13 1.47  
Year to date precipitation 3.44 5.68  
Snow  
Snow 0.00 in 0.70 in 7.80 in (1981)
Month to date snowfall T 14.8  
Since 1 July snowfall 64.0 88.0  
Snow Depth 0.00 in    
Sea Level Pressure  
Sea Level Pressure 29.84 in    
Wind  
Wind Speed 15 mph (SSW)    
Max Wind Speed 31 mph    
Max Gust Speed 44 mph    
Visibility 10 miles    
Events      
T = Trace of Precipitation, MM = Missing Value Source: NWS Daily Summary

Daily Weather History Graph

Daily Weather History Graph

Search for Another Location

Airport or City:

Trip Planner

Search our weather history database for the weather conditions in past years. The results will help you decide how hot, cold, wet, or windy it might be!

Date:

Astronomy

Mar. 20, 2011 Rise Set
Actual Time 6:30 AM MST 6:38 PM MST
Civil Twilight 6:05 AM MST 7:03 PM MST
Nautical Twilight 5:35 AM MST 7:33 PM MST
Astronomical Twilight 5:05 AM MST 8:03 PM MST
Moon 8:15 PM MST (3/20) 6:43 AM MST (3/20)
Length of Visible Light 12h 58m
Length of Day
12h 07m
Full, 98% of the Moon is Illuminated
Mar 20
Full
Mar 26
Last Quarter
Apr 3
New
Apr 11
First Quarter
Apr 17
Full

Hourly Weather History & Observations

Time (MST) Temp. Windchill Dew Point Humidity Pressure Visibility Wind Dir Wind Speed Gust Speed Precip Events Conditions
12:57 AM 39.0 °F 31.8 °F 9.0 °F 29% 29.91 in 10.0 mi SSW 11.5 mph - N/A   Overcast
1:57 AM 39.0 °F 34.0 °F 10.0 °F 30% 29.90 in 10.0 mi SW 6.9 mph - N/A   Overcast
2:57 AM 37.9 °F 31.5 °F 9.0 °F 30% 29.91 in 10.0 mi SW 9.2 mph - N/A   Overcast
3:57 AM 37.0 °F 32.4 °F 9.0 °F 31% 29.90 in 10.0 mi WSW 5.8 mph - N/A   Clear
4:57 AM 36.0 °F 31.1 °F 8.1 °F 31% 29.90 in 10.0 mi WSW 5.8 mph - N/A   Clear
5:57 AM 35.1 °F 30.1 °F 7.0 °F 31% 29.91 in 10.0 mi WSW 5.8 mph - N/A   Clear
6:57 AM 37.9 °F 30.5 °F 7.0 °F 28% 29.90 in 10.0 mi WSW 11.5 mph - N/A   Partly Cloudy
7:57 AM 39.9 °F 35.1 °F 9.0 °F 28% 29.90 in 10.0 mi SW 6.9 mph - N/A   Clear
8:57 AM 44.1 °F 36.8 °F 5.0 °F 20% 29.89 in 10.0 mi SSW 16.1 mph 26.5 mph N/A   Clear
9:57 AM 46.9 °F - 3.9 °F 17% 29.89 in 10.0 mi SSW 20.7 mph 29.9 mph N/A   Clear
10:57 AM 48.0 °F - 1.0 °F 14% 29.88 in 10.0 mi SW 21.9 mph 31.1 mph N/A   Clear
11:57 AM 50.0 °F - -0.0 °F 13% 29.86 in 10.0 mi South 17.3 mph 31.1 mph N/A   Clear
12:57 PM 48.9 °F - -5.1 °F 11% 29.85 in 10.0 mi SSW 25.3 mph 36.8 mph N/A   Clear
1:57 PM 48.9 °F - -4.0 °F 11% 29.83 in 10.0 mi SSW 20.7 mph 35.7 mph N/A   Clear
2:57 PM 48.0 °F - -4.0 °F 11% 29.81 in 10.0 mi SW 31.1 mph 43.7 mph N/A   Clear
3:57 PM 46.9 °F - -0.9 °F 14% 29.81 in 10.0 mi SSW 25.3 mph 34.5 mph N/A   Clear
4:57 PM 46.0 °F 38.8 °F -0.0 °F 15% 29.83 in 10.0 mi SSW 18.4 mph 32.2 mph N/A   Clear
5:57 PM 45.0 °F 38.9 °F 1.0 °F 16% 29.83 in 10.0 mi SSW 12.7 mph 19.6 mph N/A   Clear
6:57 PM 44.1 °F 40.1 °F 3.0 °F 18% 29.81 in 10.0 mi South 6.9 mph - N/A   Partly Cloudy
7:57 PM 44.1 °F 39.5 °F 3.9 °F 19% 29.79 in 10.0 mi South 8.1 mph - N/A   Mostly Cloudy
8:57 PM 44.1 °F 39.0 °F 3.9 °F 19% 29.76 in 10.0 mi South 9.2 mph - N/A   Mostly Cloudy
9:57 PM 45.0 °F 39.3 °F 5.0 °F 19% 29.73 in 10.0 mi SSW 11.5 mph 19.6 mph N/A   Overcast
10:57 PM 44.1 °F 39.0 °F 5.0 °F 20% 29.73 in 10.0 mi South 9.2 mph 20.7 mph N/A   Overcast
11:57 PM 44.1 °F 37.1 °F 5.0 °F 20% 29.69 in 10.0 mi South 15.0 mph 26.5 mph N/A   Overcast